Location: Kitchener
(43.4500°N, 80.5000°W)
Time: 03:56:22
(UTC-04:00)

Cosmos 1939 Rocket - Visible Passes

Search period start: 24 May 2016 00:00
Search period end: 03 June 2016 00:00
Orbit: 535 x 587 km, 97.6° (Epoch: 23 May)

Date Brightness Start Highest point End Pass type
(mag) Time Alt. Az. Time Alt. Az. Time Alt. Az.
24 May 4.3 22:20:20 10° SSW 22:24:09 35° W 22:27:59 10° NNW visible
25 May 4.3 22:19:24 10° SSW 22:23:14 36° W 22:27:06 10° NNW visible
26 May 4.3 22:18:29 10° SSW 22:22:20 37° W 22:26:12 10° NNW visible
27 May 4.2 22:17:33 10° SSW 22:21:25 37° W 22:25:18 10° NNW visible
28 May 4.2 22:16:37 10° SSW 22:20:31 38° W 22:24:24 10° NNW visible
29 May 4.2 22:15:42 10° SSW 22:19:35 39° W 22:23:29 10° NNW visible
30 May 4.1 22:14:45 10° SSW 22:18:40 40° W 22:22:35 10° NNW visible
31 May 4.1 22:13:49 10° S 22:17:44 41° W 22:21:40 10° NNW visible
01 Jun 4.0 22:12:53 10° S 22:16:49 42° W 22:20:45 10° NNW visible
02 Jun 4.0 22:11:56 10° S 22:15:53 43° W 22:19:49 10° NNW visible
